RYR7716 LFMK-LPPR

Flight info

Callsign RYR7716
Flight time 1h 35m
Altitude 33000
Route GALDO DCT DIGPO DCT LATEK DCT PPN N976 ZMR L155 ADORO DCT INKIT
Aircraft B738/M-SDE2E3FGHIRWXY/LB1

Departure

Time 2026-04-26 16:50
Airport Carcassonne Salvaza Airport (LFMK)

Arrival

Time 2026-04-26 18:26
Airport Francisco de Sá Carneiro Airport (LPPR)
Time Latitude Longitude Altitude Speed Heading
2026-04-26 16:23 43.21406 2.30545 422 ft 0 kts 319°
2026-04-26 16:43 43.21407 2.30544 422 ft 1 kts 319°
2026-04-26 16:43 43.21415 2.30539 415 ft 1 kts 342°
2026-04-26 16:44 43.21424 2.30540 419 ft 2 kts
2026-04-26 16:44 43.21439 2.30548 422 ft 3 kts 35°
2026-04-26 16:44 43.21448 2.30574 414 ft 4 kts 78°
2026-04-26 16:44 43.21447 2.30618 422 ft 6 kts 95°
2026-04-26 16:45 43.21446 2.30691 422 ft 9 kts 78°
2026-04-26 16:45 43.21480 2.30768 417 ft 10 kts 76°
2026-04-26 16:45 43.21492 2.30832 415 ft 0 kts 37°
2026-04-26 16:47 43.21493 2.30832 415 ft 0 kts 35°
2026-04-26 16:47 43.21505 2.30840 422 ft 4 kts 23°
2026-04-26 16:47 43.21549 2.30852 420 ft 8 kts 18°
2026-04-26 16:47 43.21574 2.30932 413 ft 11 kts 93°
2026-04-26 16:48 43.21564 2.31054 420 ft 14 kts 95°
2026-04-26 16:48 43.21553 2.31203 412 ft 17 kts 96°
2026-04-26 16:48 43.21539 2.31373 414 ft 19 kts 96°
2026-04-26 16:48 43.21524 2.31559 418 ft 20 kts 96°
2026-04-26 16:49 43.21513 2.31744 419 ft 15 kts 80°
2026-04-26 16:49 43.21513 2.31795 422 ft 2 kts 169°
2026-04-26 16:49 43.21508 2.31775 417 ft 3 kts 275°
2026-04-26 16:49 43.21508 2.31770 419 ft 0 kts 275°
2026-04-26 16:50 43.21522 2.31589 420 ft 55 kts 277°
2026-04-26 16:50 43.21593 2.30712 421 ft 127 kts 276°
2026-04-26 16:50 43.21709 2.29287 695 ft 162 kts 275°
2026-04-26 16:50 43.21821 2.27718 1431 ft 170 kts 277°
2026-04-26 16:51 43.21945 2.26040 1945 ft 190 kts 280°
2026-04-26 16:51 43.22101 2.24139 2114 ft 211 kts 280°
2026-04-26 16:51 43.22273 2.22044 2419 ft 225 kts 278°
2026-04-26 16:51 43.22452 2.19809 2606 ft 247 kts 278°
2026-04-26 16:52 43.22643 2.17425 3130 ft 256 kts 277°
2026-04-26 16:52 43.22770 2.15800 3548 ft 257 kts 278°
2026-04-26 16:52 43.23030 2.12505 4389 ft 264 kts 277°
2026-04-26 16:52 43.23225 2.09993 4953 ft 271 kts 276°
2026-04-26 16:53 43.23426 2.07405 5592 ft 273 kts 276°
2026-04-26 16:53 43.23628 2.04803 6266 ft 276 kts 276°
2026-04-26 16:53 43.23832 2.02167 6891 ft 279 kts 276°
2026-04-26 16:53 43.24038 1.99516 7626 ft 278 kts 276°
2026-04-26 16:54 43.24240 1.96901 8342 ft 279 kts 276°
2026-04-26 16:54 43.24445 1.94234 9046 ft 282 kts 276°
2026-04-26 16:54 43.24649 1.91559 9866 ft 280 kts 277°
2026-04-26 16:54 43.24851 1.88872 10459 ft 288 kts 276°
2026-04-26 16:55 43.25062 1.86030 10625 ft 310 kts 276°
2026-04-26 16:55 43.25284 1.83026 10843 ft 329 kts 276°
2026-04-26 16:55 43.25518 1.79849 11313 ft 337 kts 276°
2026-04-26 16:55 43.25753 1.76629 11970 ft 340 kts 276°
2026-04-26 16:56 43.26538 1.70186 13369 ft 345 kts 284°
2026-04-26 16:56 43.27146 1.66980 14063 ft 348 kts 285°
2026-04-26 16:56 43.27781 1.63751 14687 ft 353 kts 285°
2026-04-26 16:57 43.28414 1.60513 15295 ft 357 kts 285°
2026-04-26 16:57 43.29049 1.57198 15930 ft 360 kts 285°
2026-04-26 16:57 43.30310 1.50451 17150 ft 369 kts 284°
2026-04-26 16:58 43.30943 1.47006 17719 ft 375 kts 284°
2026-04-26 16:58 43.31365 1.44695 18130 ft 377 kts 284°
2026-04-26 16:58 43.32862 1.36428 19409 ft 386 kts 284°
2026-04-26 16:59 43.33502 1.32883 19957 ft 388 kts 284°
2026-04-26 16:59 43.34805 1.25630 21022 ft 394 kts 285°
2026-04-26 17:00 43.36127 1.18251 22043 ft 400 kts 285°
2026-04-26 17:00 43.37463 1.10757 23045 ft 406 kts 285°
2026-04-26 17:00 43.38137 1.06969 23525 ft 409 kts 285°
2026-04-26 17:01 43.38806 1.03199 23960 ft 412 kts 285°
2026-04-26 17:01 43.39487 0.99350 24372 ft 414 kts 285°
2026-04-26 17:01 43.40169 0.95487 24795 ft 416 kts 285°
2026-04-26 17:01 43.40855 0.91595 25201 ft 418 kts 285°
2026-04-26 17:02 43.41541 0.87695 25605 ft 421 kts 285°
2026-04-26 17:02 43.42231 0.83768 25990 ft 423 kts 285°
2026-04-26 17:02 43.42832 0.79969 26348 ft 426 kts 278°
2026-04-26 17:02 43.42809 0.75873 26705 ft 432 kts 262°
2026-04-26 17:03 43.41982 0.71885 27058 ft 437 kts 248°
2026-04-26 17:03 43.40589 0.68158 27406 ft 440 kts 242°
2026-04-26 17:03 43.39113 0.64460 27761 ft 442 kts 242°
2026-04-26 17:03 43.37626 0.60728 28087 ft 445 kts 242°
2026-04-26 17:04 43.36143 0.56981 28426 ft 447 kts 243°
2026-04-26 17:04 43.34665 0.53217 28846 ft 447 kts 243°
2026-04-26 17:04 43.33212 0.49502 29356 ft 445 kts 243°
2026-04-26 17:04 43.31754 0.45765 29894 ft 442 kts 243°
2026-04-26 17:05 43.30303 0.42040 30335 ft 441 kts 243°
2026-04-26 17:05 43.28853 0.38323 30687 ft 441 kts 243°
2026-04-26 17:05 43.27407 0.34618 31073 ft 440 kts 243°
2026-04-26 17:05 43.25963 0.30925 31494 ft 438 kts 243°
2026-04-26 17:06 43.24522 0.27246 31871 ft 437 kts 243°
2026-04-26 17:06 43.23102 0.23624 32217 ft 436 kts 243°
2026-04-26 17:06 43.21667 0.19968 32589 ft 435 kts 243°
2026-04-26 17:06 43.20233 0.16323 32952 ft 434 kts 243°
2026-04-26 17:07 43.18801 0.12685 33201 ft 433 kts 243°
2026-04-26 17:07 43.17358 0.09024 33179 ft 436 kts 243°
2026-04-26 17:07 43.14488 0.01755 33183 ft 433 kts 242°
2026-04-26 17:08 43.11619 -0.05492 33149 ft 431 kts 242°
2026-04-26 17:08 43.08758 -0.12694 33171 ft 430 kts 242°
2026-04-26 17:09 43.06377 -0.18677 33172 ft 430 kts 242°
2026-04-26 17:09 43.03036 -0.27051 33182 ft 431 kts 242°
2026-04-26 17:10 43.00151 -0.34268 33190 ft 433 kts 242°
2026-04-26 17:10 42.97251 -0.41505 33181 ft 434 kts 242°
2026-04-26 17:11 42.94361 -0.48692 33168 ft 435 kts 242°
2026-04-26 17:11 42.91442 -0.55943 33170 ft 436 kts 242°
2026-04-26 17:12 42.87368 -0.67012 33154 ft 435 kts 253°
2026-04-26 17:13 42.85664 -0.79144 33134 ft 434 kts 261°
2026-04-26 17:14 42.84135 -0.91252 33149 ft 433 kts 260°
2026-04-26 17:14 42.82528 -1.03388 33138 ft 433 kts 261°
2026-04-26 17:15 42.80909 -1.15448 33128 ft 433 kts 261°
2026-04-26 17:16 42.79820 -1.23513 33129 ft 432 kts 260°
2026-04-26 17:16 42.78732 -1.31529 33118 ft 432 kts 260°
2026-04-26 17:17 42.77820 -1.38214 33114 ft 432 kts 260°
2026-04-26 17:17 42.76715 -1.46270 33106 ft 432 kts 260°
2026-04-26 17:18 42.75607 -1.54307 33104 ft 431 kts 259°
2026-04-26 17:18 42.74502 -1.62290 33098 ft 431 kts 260°
2026-04-26 17:19 42.72616 -1.74250 33101 ft 431 kts 254°
2026-04-26 17:19 42.70806 -1.82031 33106 ft 430 kts 252°
2026-04-26 17:20 42.69283 -1.88483 33117 ft 430 kts 253°
2026-04-26 17:20 42.67208 -1.97512 33107 ft 430 kts 253°
2026-04-26 17:21 42.65439 -2.05278 33100 ft 429 kts 253°
2026-04-26 17:21 42.63679 -2.12974 33094 ft 429 kts 253°
2026-04-26 17:22 42.61870 -2.20691 33087 ft 429 kts 252°
2026-04-26 17:22 42.59990 -2.28397 33082 ft 428 kts 252°
2026-04-26 17:23 42.58123 -2.36026 33077 ft 428 kts 252°
2026-04-26 17:23 42.56245 -2.43710 33084 ft 428 kts 252°
2026-04-26 17:24 42.54367 -2.51385 33089 ft 428 kts 252°
2026-04-26 17:24 42.52498 -2.59001 33091 ft 428 kts 252°
2026-04-26 17:25 42.50610 -2.66667 33107 ft 428 kts 252°
2026-04-26 17:25 42.48713 -2.74344 33111 ft 428 kts 252°
2026-04-26 17:26 42.46815 -2.82005 33123 ft 429 kts 252°
2026-04-26 17:26 42.44858 -2.89648 33118 ft 429 kts 248°
2026-04-26 17:27 42.42425 -2.96970 33127 ft 429 kts 245°
2026-04-26 17:27 42.39856 -3.04279 33135 ft 429 kts 245°
2026-04-26 17:28 42.37328 -3.11560 33128 ft 429 kts 245°
2026-04-26 17:28 42.34809 -3.18895 33123 ft 429 kts 245°
2026-04-26 17:29 42.32721 -3.24991 33136 ft 429 kts 246°
2026-04-26 17:29 42.29796 -3.33508 33144 ft 429 kts 245°
2026-04-26 17:30 42.27270 -3.40839 33147 ft 429 kts 245°
2026-04-26 17:30 42.24758 -3.48114 33155 ft 429 kts 246°
2026-04-26 17:31 42.22230 -3.55417 33146 ft 429 kts 246°
2026-04-26 17:31 42.19693 -3.62719 33150 ft 429 kts 245°
2026-04-26 17:32 42.17173 -3.69957 33122 ft 428 kts 246°
2026-04-26 17:32 42.14631 -3.77239 33118 ft 428 kts 245°
2026-04-26 17:33 42.12090 -3.84503 33114 ft 428 kts 245°
2026-04-26 17:34 42.08282 -3.95350 33117 ft 428 kts 245°
2026-04-26 17:34 42.05731 -4.02595 33118 ft 428 kts 245°
2026-04-26 17:35 42.03194 -4.09783 33116 ft 428 kts 245°
2026-04-26 17:35 42.00748 -4.17088 33120 ft 427 kts 248°
2026-04-26 17:36 41.98445 -4.24465 33118 ft 427 kts 248°
2026-04-26 17:36 41.96137 -4.31831 33115 ft 427 kts 248°
2026-04-26 17:37 41.93816 -4.39147 33117 ft 427 kts 247°
2026-04-26 17:37 41.91466 -4.46496 33119 ft 428 kts 247°
2026-04-26 17:38 41.87943 -4.57467 33115 ft 428 kts 247°
2026-04-26 17:38 41.85580 -4.64804 33123 ft 427 kts 247°
2026-04-26 17:39 41.83325 -4.72138 33124 ft 427 kts 252°
2026-04-26 17:39 41.81644 -4.79776 33129 ft 426 kts 255°
2026-04-26 17:40 41.80324 -4.86154 33131 ft 426 kts 255°
2026-04-26 17:40 41.78423 -4.95077 33129 ft 426 kts 254°
2026-04-26 17:41 41.76766 -5.02648 33132 ft 425 kts 254°
2026-04-26 17:41 41.75086 -5.10245 33123 ft 424 kts 254°
2026-04-26 17:42 41.73407 -5.17807 33123 ft 423 kts 254°
2026-04-26 17:42 41.71738 -5.25302 33115 ft 422 kts 254°
2026-04-26 17:43 41.70055 -5.32834 33115 ft 421 kts 254°
2026-04-26 17:43 41.68383 -5.40294 33108 ft 420 kts 253°
2026-04-26 17:44 41.66697 -5.47791 33108 ft 420 kts 253°
2026-04-26 17:44 41.65009 -5.55272 33105 ft 420 kts 253°
2026-04-26 17:45 41.63318 -5.62740 33101 ft 420 kts 254°
2026-04-26 17:45 41.61620 -5.70213 33100 ft 420 kts 254°
2026-04-26 17:46 41.59925 -5.77646 33098 ft 420 kts 253°
2026-04-26 17:46 41.58218 -5.85112 33096 ft 420 kts 253°
2026-04-26 17:47 41.57084 -5.90055 33095 ft 420 kts 253°
2026-04-26 17:47 41.54799 -5.99986 33096 ft 420 kts 253°
2026-04-26 17:48 41.53078 -6.07437 33098 ft 419 kts 253°
2026-04-26 17:48 41.51349 -6.14894 33092 ft 419 kts 253°
2026-04-26 17:49 41.49631 -6.22289 33093 ft 419 kts 253°
2026-04-26 17:49 41.47935 -6.29734 33090 ft 419 kts 255°
2026-04-26 17:50 41.46539 -6.37248 32713 ft 413 kts 257°
2026-04-26 17:50 41.45900 -6.40906 32282 ft 410 kts 257°
2026-04-26 17:50 41.45246 -6.44633 31790 ft 416 kts 257°
2026-04-26 17:51 41.44576 -6.48417 31197 ft 422 kts 257°
2026-04-26 17:51 41.43892 -6.52230 30602 ft 422 kts 256°
2026-04-26 17:51 41.43209 -6.55997 29974 ft 423 kts 256°
2026-04-26 17:51 41.42511 -6.59821 29327 ft 422 kts 256°
2026-04-26 17:52 41.41818 -6.63600 28853 ft 417 kts 256°
2026-04-26 17:52 41.41085 -6.67322 28318 ft 414 kts 254°
2026-04-26 17:52 41.40291 -6.71006 27768 ft 411 kts 253°
2026-04-26 17:52 41.39488 -6.74620 27171 ft 411 kts 253°
2026-04-26 17:53 41.38671 -6.78277 26594 ft 410 kts 253°
2026-04-26 17:53 41.37864 -6.81911 26176 ft 405 kts 253°
2026-04-26 17:53 41.37072 -6.85501 25649 ft 404 kts 254°
2026-04-26 17:54 41.35502 -6.92660 24598 ft 403 kts 254°
2026-04-26 17:54 41.34720 -6.96232 24211 ft 399 kts 253°
2026-04-26 17:54 41.33946 -6.99772 23761 ft 395 kts 253°
2026-04-26 17:54 41.33180 -7.03269 23086 ft 392 kts 253°
2026-04-26 17:55 41.32425 -7.06710 22383 ft 390 kts 253°
2026-04-26 17:55 41.31669 -7.10152 21852 ft 385 kts 253°
2026-04-26 17:55 41.30919 -7.13559 21388 ft 383 kts 253°
2026-04-26 17:55 41.30170 -7.16957 21084 ft 378 kts 253°
2026-04-26 17:56 41.29422 -7.20348 20855 ft 391 kts 253°
2026-04-26 17:56 41.27838 -7.27504 19885 ft 404 kts 253°
2026-04-26 17:57 41.26267 -7.34577 18905 ft 398 kts 253°
2026-04-26 17:57 41.25482 -7.38105 18422 ft 396 kts 253°
2026-04-26 17:57 41.24702 -7.41602 17854 ft 394 kts 253°
2026-04-26 17:57 41.23924 -7.45086 17330 ft 391 kts 253°
2026-04-26 17:58 41.21633 -7.55314 15844 ft 382 kts 253°
2026-04-26 17:59 41.20119 -7.62045 14881 ft 377 kts 253°
2026-04-26 17:59 41.19370 -7.65371 14411 ft 375 kts 253°
2026-04-26 17:59 41.18624 -7.68676 13939 ft 373 kts 253°
2026-04-26 17:59 41.17880 -7.71970 13410 ft 371 kts 253°
2026-04-26 18:00 41.17139 -7.75239 12895 ft 368 kts 253°
2026-04-26 18:00 41.16405 -7.78477 12417 ft 364 kts 253°
2026-04-26 18:00 41.15687 -7.81641 11953 ft 361 kts 253°
2026-04-26 18:00 41.14961 -7.84835 11478 ft 358 kts 253°
2026-04-26 18:01 41.14243 -7.87985 11162 ft 356 kts 253°
2026-04-26 18:01 41.13525 -7.91135 11117 ft 352 kts 253°
2026-04-26 18:01 41.12837 -7.94151 11086 ft 337 kts 253°
2026-04-26 18:01 41.12171 -7.97064 11069 ft 322 kts 253°
2026-04-26 18:02 41.11535 -7.99843 11072 ft 307 kts 253°
2026-04-26 18:02 41.11326 -8.00754 11075 ft 303 kts 253°
2026-04-26 18:02 41.10321 -8.05135 11011 ft 295 kts 253°
2026-04-26 18:02 41.09730 -8.07708 10787 ft 288 kts 253°
2026-04-26 18:03 41.09345 -8.09381 10547 ft 286 kts 253°
2026-04-26 18:03 41.08766 -8.11897 10189 ft 283 kts 253°
2026-04-26 18:03 41.08192 -8.14389 9774 ft 283 kts 253°
2026-04-26 18:03 41.07433 -8.17679 9261 ft 280 kts 253°
2026-04-26 18:04 41.07049 -8.19342 8960 ft 279 kts 253°
2026-04-26 18:04 41.06488 -8.21769 8567 ft 276 kts 253°
2026-04-26 18:04 41.05927 -8.24189 8236 ft 272 kts 253°
2026-04-26 18:05 41.04807 -8.29024 7669 ft 276 kts 253°
2026-04-26 18:05 41.04250 -8.31423 7388 ft 275 kts 252°
2026-04-26 18:05 41.03689 -8.33840 7116 ft 275 kts 252°
2026-04-26 18:05 41.03125 -8.36263 6840 ft 274 kts 253°
2026-04-26 18:06 41.02564 -8.38674 6548 ft 274 kts 253°
2026-04-26 18:06 41.02002 -8.41089 6255 ft 273 kts 253°
2026-04-26 18:06 41.01442 -8.43485 5962 ft 272 kts 253°
2026-04-26 18:06 41.00883 -8.45877 5677 ft 271 kts 253°
2026-04-26 18:07 41.00334 -8.48236 5411 ft 271 kts 255°
2026-04-26 18:07 40.99922 -8.50640 5261 ft 263 kts 260°
2026-04-26 18:07 40.99588 -8.52992 5153 ft 256 kts 261°
2026-04-26 18:07 40.99371 -8.54517 5077 ft 252 kts 260°
2026-04-26 18:08 40.98955 -8.57510 4933 ft 242 kts 266°
2026-04-26 18:08 40.99213 -8.59634 4745 ft 232 kts 301°
2026-04-26 18:08 41.00227 -8.61197 4542 ft 225 kts 326°
2026-04-26 18:08 41.01623 -8.62073 4288 ft 222 kts 348°
2026-04-26 18:09 41.03137 -8.62481 4012 ft 223 kts 350°
2026-04-26 18:09 41.04661 -8.62877 3770 ft 222 kts 350°
2026-04-26 18:09 41.06181 -8.63272 3524 ft 221 kts 350°
2026-04-26 18:09 41.07654 -8.63651 3331 ft 214 kts 350°
2026-04-26 18:10 41.09105 -8.64025 3071 ft 211 kts 350°
2026-04-26 18:10 41.10531 -8.64394 2817 ft 207 kts 350°
2026-04-26 18:10 41.11929 -8.64758 2554 ft 202 kts 350°
2026-04-26 18:10 41.13286 -8.65112 2277 ft 193 kts 350°
2026-04-26 18:11 41.14581 -8.65451 2011 ft 185 kts 349°
2026-04-26 18:11 41.15814 -8.65772 1778 ft 177 kts 350°
2026-04-26 18:11 41.16969 -8.66073 1568 ft 164 kts 349°
2026-04-26 18:11 41.18037 -8.66352 1353 ft 154 kts 349°
2026-04-26 18:12 41.19073 -8.66623 1155 ft 149 kts 348°
2026-04-26 18:12 41.20087 -8.66886 959 ft 149 kts 346°
2026-04-26 18:12 41.21128 -8.67162 752 ft 155 kts 347°
2026-04-26 18:12 41.22174 -8.67438 511 ft 155 kts 348°
2026-04-26 18:13 41.23238 -8.67707 305 ft 153 kts 347°
2026-04-26 18:13 41.24281 -8.67979 542 ft 152 kts 348°
2026-04-26 18:13 41.25346 -8.68248 942 ft 160 kts 348°
2026-04-26 18:13 41.26072 -8.68434 1305 ft 158 kts 349°
2026-04-26 18:14 41.27609 -8.68813 1835 ft 181 kts 351°
2026-04-26 18:14 41.28850 -8.69006 2557 ft 181 kts 355°
2026-04-26 18:14 41.30127 -8.69494 2893 ft 206 kts 325°
2026-04-26 18:14 41.30995 -8.71090 3053 ft 229 kts 286°
2026-04-26 18:15 41.30899 -8.73255 3293 ft 244 kts 251°
2026-04-26 18:15 41.30252 -8.75394 3753 ft 251 kts 248°
2026-04-26 18:15 41.29587 -8.77539 4445 ft 250 kts 248°
2026-04-26 18:15 41.28934 -8.79697 4984 ft 255 kts 249°
2026-04-26 18:16 41.28287 -8.81887 5556 ft 256 kts 250°
2026-04-26 18:16 41.27001 -8.86360 5982 ft 259 kts 250°
2026-04-26 18:16 41.26180 -8.88448 5979 ft 261 kts 228°
2026-04-26 18:17 41.24731 -8.89844 5804 ft 257 kts 200°
2026-04-26 18:17 41.22991 -8.90171 5251 ft 256 kts 174°
2026-04-26 18:17 41.21220 -8.89612 4541 ft 264 kts 160°
2026-04-26 18:17 41.19481 -8.88833 4366 ft 264 kts 159°
2026-04-26 18:18 41.17753 -8.88016 4251 ft 267 kts 159°
2026-04-26 18:18 41.15996 -8.87175 4125 ft 270 kts 159°
2026-04-26 18:18 41.14226 -8.86337 4028 ft 272 kts 159°
2026-04-26 18:18 41.12467 -8.85500 3727 ft 267 kts 159°
2026-04-26 18:19 41.10726 -8.84679 3222 ft 265 kts 159°
2026-04-26 18:19 41.09013 -8.83877 3068 ft 259 kts 159°
2026-04-26 18:19 41.07287 -8.83072 3039 ft 266 kts 159°
2026-04-26 18:19 41.05536 -8.82253 3014 ft 266 kts 159°
2026-04-26 18:20 41.03797 -8.81430 3010 ft 269 kts 159°
2026-04-26 18:20 41.02078 -8.80475 2987 ft 266 kts 144°
2026-04-26 18:20 41.00866 -8.78799 2984 ft 242 kts 116°
2026-04-26 18:20 41.00517 -8.77452 2993 ft 227 kts 95°
2026-04-26 18:21 41.00686 -8.74771 3017 ft 229 kts 70°
2026-04-26 18:21 41.01452 -8.72826 3018 ft 242 kts 57°
2026-04-26 18:21 41.02369 -8.70957 3000 ft 242 kts 56°
2026-04-26 18:21 41.03293 -8.69062 3009 ft 248 kts 56°
2026-04-26 18:22 41.04229 -8.67127 3006 ft 249 kts 56°
2026-04-26 18:22 41.05178 -8.65253 2988 ft 238 kts 47°
2026-04-26 18:22 41.06489 -8.64093 2990 ft 221 kts 18°
2026-04-26 18:22 41.07968 -8.63777 3011 ft 219 kts 359°
2026-04-26 18:23 41.09473 -8.64061 3007 ft 217 kts 350°
2026-04-26 18:23 41.10967 -8.64460 2744 ft 217 kts 349°
2026-04-26 18:23 41.12418 -8.64853 2442 ft 209 kts 349°
2026-04-26 18:23 41.13811 -8.65229 2174 ft 200 kts 349°
2026-04-26 18:24 41.15147 -8.65586 1914 ft 191 kts 349°
2026-04-26 18:24 41.16417 -8.65922 1658 ft 181 kts 349°
2026-04-26 18:24 41.17603 -8.66235 1439 ft 171 kts 349°
2026-04-26 18:24 41.18745 -8.66536 1234 ft 162 kts 349°
2026-04-26 18:25 41.19801 -8.66810 1002 ft 150 kts 347°
2026-04-26 18:25 41.20803 -8.67073 818 ft 147 kts 347°
2026-04-26 18:25 41.21839 -8.67357 615 ft 154 kts 346°
2026-04-26 18:25 41.22888 -8.67622 360 ft 152 kts 348°
2026-04-26 18:26 41.23913 -8.67892 234 ft 142 kts 348°
2026-04-26 18:26 41.24681 -8.68089 236 ft 81 kts 349°
2026-04-26 18:26 41.25075 -8.68170 232 ft 40 kts
2026-04-26 18:26 41.25250 -8.68111 236 ft 19 kts 19°
2026-04-26 18:27 41.25293 -8.68031 234 ft 11 kts 132°
2026-04-26 18:27 41.25224 -8.68002 234 ft 10 kts 171°
2026-04-26 18:27 41.25154 -8.67982 234 ft 10 kts 167°
2026-04-26 18:27 41.25086 -8.67965 234 ft 10 kts 171°
2026-04-26 18:28 41.25020 -8.67948 236 ft 10 kts 167°
2026-04-26 18:28 41.24957 -8.67929 234 ft 9 kts 167°
2026-04-26 18:28 41.24894 -8.67910 234 ft 9 kts 167°
2026-04-26 18:28 41.24834 -8.67874 237 ft 11 kts 149°
2026-04-26 18:29 41.24757 -8.67827 234 ft 14 kts 161°
2026-04-26 18:29 41.24647 -8.67795 234 ft 18 kts 168°
2026-04-26 18:29 41.24510 -8.67759 234 ft 21 kts 168°
2026-04-26 18:29 41.24369 -8.67722 234 ft 20 kts 168°
2026-04-26 18:30 41.24258 -8.67624 235 ft 20 kts 124°
2026-04-26 18:30 41.24138 -8.67557 236 ft 19 kts 169°
2026-04-26 18:30 41.24012 -8.67523 234 ft 18 kts 168°
2026-04-26 18:30 41.23919 -8.67498 238 ft 11 kts 168°
2026-04-26 18:31 41.23845 -8.67479 234 ft 11 kts 169°
2026-04-26 18:31 41.23773 -8.67461 234 ft 10 kts 165°
2026-04-26 18:31 41.23723 -8.67397 236 ft 10 kts 125°
2026-04-26 18:31 41.23681 -8.67327 236 ft 10 kts 108°
2026-04-26 18:32 41.23685 -8.67262 234 ft 4 kts 79°
2026-04-26 18:32 41.23686 -8.67252 234 ft 0 kts 79°